Wind_Speed
33 41 41 42 45 43 42 47 44 43 39 31 33 34 31 23 19 18 19 25 27 29 22 19 31 37 42 40 41 40 38 40 40 37 35 34 32 31 30 29 28 26 24 26
31 38 42 46 45 42 39 39 41 43 41 39 40 35 30 27 24 24 26 26 27 24 24 27 19 37 45 37 39 42 35 36 41 41 36 34 38 36 35 32 31 29 27 27
32 35 41 40 47 44 39 37 35 34 35 35 42 47 42 32 21 22 22 22 25 23 19 17 20 18 23 18 42 33 29 15 33 20 44 23 31 40 40 35 35 32 32 31
29 36 39 38 32 46 44 39 39 35 36 39 35 40 40 34 31 28 24 22 22 25 24 28 22 14 16 19 22 22 13 11 14 16 14 14 22 38 43 38 41 35 33 33
16 27 33 35 40 36 38 44 39 44 37 31 34 32 33 29 29 30 32 25 23 28 27 25 21 23 22 18 19 17 16 10 15 16 16 16 17 24 33 36 40 39 44 39
23 24 27 27 33 37 32 32 37 38 40 38 34 34 32 30 27 27 30 31 31 31 28 28 25 26 26 23 20 18 15 18 16 15 16 16 18 20 20 25 26 25 45 47
26 23 24 22 26 33 39 34 34 35 35 43 38 39 41 40 35 30 28 28 30 32 31 30 29 29 27 24 21 19 19 19 17 18 17 16 18 21 25 27 25 24 25 33
25 29 29 25 22 23 27 31 38 40 39 36 38 32 34 37 39 39 36 33 34 36 37 36 33 28 30 30 28 27 26 27 25 24 25 26 25 25 26 27 26 28 28 27
22 20 19 22 27 24 23 25 39 42 40 37 28 28 29 32 36 37 38 39 40 40 41 42 42 43 43 40 37 38 36 36 36 36 37 36 36 33 33 32 31 33 31 29
22 23 21 13 17 25 25 20 28 32 39 36 37 31 31 32 33 38 40 40 42 44 45 44 46 45 46 44 44 44 44 44 44 44 43 42 42 42 41 40 38 37 36 37
21 21 24 22 19 18 22 24 26 27 30 32 30 32 30 33 37 36 35 39 42 41 42 47 50 51 51 51 52 52 51 51 50 50 49 49 48 47 46 44 44 43 42 42
20 21 23 25 26 26 24 23 27 32 33 33 33 31 32 38 39 38 39 39 41 43 45 48 49 50 51 51 49 49 49 49 50 51 51 51 51 49 49 50 49 48 48 46
19 21 22 21 24 27 30 30 28 28 31 37 38 38 38 38 37 37 38 39 39 39 38 38 39 40 49 52 52 50 51 51 52 51 51 51 51 52 51 51 51 50 50 50
21 23 24 26 23 26 28 28 31 33 35 34 38 40 38 36 37 38 38 40 41 42 44 43 41 41 42 42 43 44 45 46 50 47 47 49 51 53 55 56 55 55 56 55
14 17 20 24 26 27 28 28 29 32 36 39 41 41 42 43 43 44 44 43 42 41 41 42 43 43 43 45 47 48 49 49 52 51 52 52 52 53 55 56 58 58 58 58
10 12 14 17 21 24 25 29 32 31 36 39 38 39 42 43 43 45 48 49 49 50 50 48 45 44 44 43 43 43 44 44 49 55 56 57 58 58 58 58 59 59 60 60
12 13 15 17 20 22 25 28 30 30 32 37 38 38 39 41 41 41 42 43 46 49 52 54 54 55 54 54 52 51 50 50 48 48 47 47 50 54 58 61 62 63 64 64
11 12 16 19 20 22 26 29 31 31 33 35 37 39 40 41 42 44 45 48 48 47 45 47 50 53 53 53 54 54 55 56 56 55 55 53 51 50 50 52 53 54 57 59
17 17 19 21 24 25 26 29 31 33 36 38 39 40 42 43 44 46 47 46 46 45 43 41 47 48 47 48 50 52 54 56 56 57 58 57 56 55 55 56 58 60 62 64
21 20 21 25 27 27 28 29 30 33 35 38 41 43 45 46 48 49 49 49 48 47 48 44 46 47 47 45 45 46 46 46 46 47 49 51 51 52 53 55 57 58 59 60
26 23 27 26 25 27 29 31 32 36 39 39 40 40 41 42 42 44 45 47 48 49 45 51 57 53 49 45 44 45 44 44 44 45 47 48 49 50 52 55 57 58 59 62
18 23 24 24 26 28 29 32 35 36 36 36 38 40 44 46 46 46 48 49 50 49 46 51 47 42 43 44 44 46 43 44 44 44 43 41 41 43 46 50 52 54 55 58
28 31 29 29 29 30 33 35 35 33 35 40 43 43 42 39 38 36 36 41 48 54 51 49 48 47 45 44 37 38 32 34 32 32 36 36 38 41 43 45 50 54 60 62
29 30 30 29 29 32 33 32 33 39 41 38 34 25 23 27 31 32 32 33 32 33 40 45 45 48 54 55 48 37 35 34 32 33 37 38 39 40 43 52 58 59 54 52
28 29 29 28 29 29 28 33 36 36 25 13 11 11 17 26 26 24 22 23 24 26 25 34 40 35 32 28 25 24 27 28 29 30 32 35 39 44 48 50 47 45 46 47
27 27 26 27 27 26 29 32 31 14 7 7 9 10 10 8 6 7 9 13 17 19 19 21 31 31 27 31 24 25 26 28 31 33 35 41 45 45 41 40 41 41 39 38
24 24 24 24 23 23 27 26 13 5 6 7 6 6 5 6 11 4 6 2 2 8 14 23 22 22 23 23 23 25 28 29 32 37 42 40 38 37 36 36 36 34 33 34
Wind_Direction
219 216 219 226 230 228 230 235 241 245 237 230 237 243 243 239 247 268 286 295 288 290 296 246 231 218 211 213 213 210 223 223 220 222 222 221 224 226 225 226 227 227 220 220
231 232 221 221 230 234 233 236 239 244 246 236 236 239 246 242 245 261 278 282 283 270 268 232 216 210 217 210 220 218 221 218 221 213 220 229 225 227 230 229 230 230 230 232
222 231 232 227 231 233 236 236 239 241 242 242 236 237 244 248 247 261 267 265 272 267 266 241 239 222 211 209 219 228 208 204 215 195 214 226 225 227 231 230 233 234 235 234
212 224 225 231 232 234 234 238 238 240 250 245 242 239 245 255 259 252 255 258 260 261 273 276 253 245 248 254 237 222 189 164 186 202 220 227 221 228 229 226 228 230 234 235
223 227 230 230 236 245 233 235 237 239 244 249 241 247 239 250 250 249 250 250 252 245 245 256 255 240 241 250 250 254 240 235 233 228 229 231 227 223 232 232 240 242 239 239
232 229 231 233 234 242 249 241 244 247 250 245 243 240 245 250 249 238 245 238 249 234 227 228 229 229 228 232 249 257 242 233 246 240 238 233 234 238 236 241 248 252 247 239
240 235 235 234 234 229 234 243 237 244 248 233 242 243 245 242 235 228 226 227 232 240 219 223 227 225 219 224 232 240 250 251 241 248 258 251 250 244 241 242 247 248 254 248
238 242 248 240 236 239 234 231 224 232 231 238 236 237 240 234 236 238 237 231 233 236 238 215 214 232 249 257 251 250 256 262 261 264 269 271 265 263 257 256 257 253 248 250
236 240 245 243 231 234 237 228 223 228 225 215 219 221 220 223 221 228 236 238 240 240 242 246 248 253 257 257 253 246 246 250 253 259 263 265 267 263 264 261 257 259 259 251
232 230 234 231 234 234 235 228 231 227 228 225 225 227 219 221 230 225 226 231 234 237 237 240 243 242 244 245 244 244 248 252 255 257 257 258 260 261 260 260 260 258 259 260
237 236 236 234 227 229 234 229 222 229 237 228 232 230 232 233 238 237 238 237 237 236 236 237 241 245 247 249 249 251 252 255 255 256 257 258 255 256 257 257 256 256 255 255
233 238 238 233 234 232 229 230 225 227 232 241 239 230 215 216 220 224 230 237 237 238 240 242 243 242 242 243 244 246 248 249 250 251 253 256 258 258 257 257 257 256 255 254
235 237 236 239 234 232 231 230 230 232 233 237 241 243 246 248 235 235 229 223 231 235 231 231 235 243 245 246 246 246 247 248 249 250 251 253 256 258 257 257 257 257 257 258
249 246 241 241 241 230 227 234 239 245 247 245 245 249 250 251 254 255 257 260 265 265 263 264 261 258 255 255 254 253 252 253 252 249 252 254 255 256 258 259 257 256 257 257
266 258 252 248 245 247 245 251 245 244 244 245 241 242 249 252 252 252 255 257 256 254 253 254 255 255 254 251 250 250 251 254 249 251 258 258 256 256 257 258 259 260 259 257
303 288 270 259 257 257 256 255 257 259 247 247 250 251 252 253 255 258 257 255 255 256 256 256 255 255 256 256 255 255 255 253 251 253 256 255 255 255 256 256 257 259 260 261
302 294 287 283 278 273 267 262 260 257 255 254 259 260 259 258 259 259 261 260 258 258 257 257 256 255 255 255 255 256 257 258 259 259 259 258 258 258 258 258 258 258 259 260
280 282 277 278 282 277 272 270 267 265 263 261 261 261 261 261 261 260 258 260 260 260 259 258 259 258 257 258 259 260 260 260 260 260 259 258 258 259 260 261 262 262 263 263
306 294 290 288 285 282 277 270 267 267 265 264 263 263 262 262 262 262 261 260 258 256 258 253 253 256 262 263 261 262 263 263 262 262 263 263 265 266 267 267 267 268 268 268
304 299 295 293 291 288 285 280 276 273 271 269 268 267 264 262 260 258 258 259 260 258 253 250 256 257 256 255 259 261 261 264 264 264 264 265 266 268 270 272 273 273 273 273
295 302 298 295 292 289 287 284 283 282 282 279 276 270 266 264 264 262 260 258 256 255 256 252 255 264 265 264 261 259 259 258 259 262 264 264 265 267 269 271 273 274 274 274
314 316 307 301 295 291 289 291 290 286 282 277 275 275 276 274 270 263 258 255 253 252 243 244 251 255 259 259 260 254 260 257 259 260 262 264 268 271 273 275 276 278 280 280
318 320 316 308 304 301 299 295 292 286 283 282 281 278 275 272 268 265 261 256 250 246 246 242 243 239 243 249 255 250 251 252 250 263 271 272 275 276 275 277 280 281 287 287
315 315 310 307 305 305 303 298 294 292 290 285 282 273 270 271 270 269 265 261 255 254 247 240 241 243 243 243 252 263 263 270 268 269 271 272 273 276 285 288 289 289 285 284
308 310 309 307 310 311 306 307 305 301 294 270 270 282 285 293 278 262 249 249 248 246 250 241 238 239 249 247 240 257 257 252 252 258 266 276 283 284 290 291 287 288 289 288
311 309 312 314 317 315 316 316 314 303 255 258 286 309 319 354 291 261 243 247 245 241 243 219 226 225 242 240 241 242 244 255 259 264 277 281 284 291 288 289 290 292 293 294
312 315 315 322 318 319 325 325 314 238 257 272 290 296 347 15 21 136 184 85 245 222 220 234 239 232 237 231 238 245 249 258 270 274 278 281 285 286 288 289 291 293 295 298
Height
5790 5794 5799 5802 5806 5811 5817 5821 5825 5832 5840 5847 5848 5852 5856 5859 5861 5862 5863 5866 5869 5870 5872 5872 5870 5873 5881 5886 5892 5891 5898 5901 5907 5914 5918 5919 5920 5924 5928 5932 5933 5935 5936 5938
5784 5787 5792 5795 5800 5806 5811 5815 5819 5825 5832 5840 5842 5846 5851 5854 5856 5858 5859 5861 5863 5862 5862 5867 5868 5871 5876 5877 5883 5887 5890 5893 5899 5904 5912 5913 5914 5917 5921 5925 5928 5930 5933 5935
5776 5781 5783 5791 5795 5799 5804 5808 5814 5818 5824 5829 5835 5840 5844 5846 5850 5853 5855 5856 5858 5858 5860 5861 5861 5865 5869 5874 5877 5881 5883 5885 5889 5895 5904 5907 5905 5909 5914 5917 5921 5923 5926 5929
5769 5772 5777 5784 5786 5792 5797 5802 5807 5812 5817 5820 5826 5830 5835 5839 5843 5846 5848 5851 5852 5853 5854 5857 5859 5860 5863 5865 5869 5872 5876 5883 5890 5894 5897 5898 5898 5901 5906 5908 5912 5915 5918 5921
5762 5766 5772 5776 5777 5782 5788 5794 5797 5803 5809 5813 5818 5823 5829 5833 5836 5838 5841 5844 5847 5848 5849 5850 5854 5859 5861 5862 5864 5867 5871 5878 5883 5888 5891 5893 5894 5895 5899 5902 5906 5908 5911 5914
5760 5763 5766 5769 5773 5777 5782 5788 5791 5797 5801 5806 5811 5816 5823 5826 5829 5830 5832 5836 5840 5842 5844 5847 5849 5851 5855 5859 5862 5867 5870 5875 5879 5882 5885 5886 5889 5891 5892 5894 5897 5899 5901 5903
5754 5757 5760 5763 5766 5772 5776 5786 5783 5787 5792 5796 5802 5806 5810 5814 5819 5823 5825 5828 5831 5835 5837 5841 5844 5846 5849 5853 5858 5862 5865 5869 5872 5876 5879 5881 5883 5886 5887 5889 5890 5890 5890 5893
5749 5752 5755 5759 5762 5765 5769 5773 5776 5780 5786 5788 5793 5797 5801 5803 5808 5814 5817 5820 5824 5828 5831 5832 5836 5841 5846 5849 5853 5856 5859 5862 5864 5866 5870 5873 5876 5878 5880 5882 5882 5884 5884 5883
5744 5746 5747 5749 5755 5758 5761 5763 5768 5774 5776 5781 5785 5789 5791 5793 5796 5801 5805 5809 5814 5818 5821 5825 5828 5832 5836 5839 5843 5846 5849 5852 5855 5858 5861 5863 5865 5867 5869 5872 5873 5875 5876 5877
5736 5740 5742 5745 5747 5750 5754 5758 5761 5765 5768 5773 5776 5780 5782 5785 5787 5789 5792 5797 5801 5806 5810 5815 5818 5821 5824 5828 5832 5835 5838 5840 5843 5847 5849 5852 5854 5856 5857 5859 5861 5863 5864 5866
5731 5734 5736 5739 5742 5744 5746 5749 5753 5756 5759 5762 5767 5771 5774 5775 5777 5780 5781 5786 5790 5794 5799 5803 5806 5810 5813 5816 5819 5822 5826 5829 5830 5833 5836 5839 5842 5844 5845 5847 5849 5850 5852 5854
5725 5727 5730 5733 5736 5738 5740 5742 5745 5749 5752 5754 5756 5760 5764 5766 5767 5769 5772 5775 5778 5782 5786 5790 5793 5797 5800 5802 5805 5808 5811 5813 5816 5819 5821 5824 5826 5829 5831 5833 5835 5836 5839 5840
5718 5721 5724 5727 5730 5732 5734 5735 5737 5739 5742 5745 5747 5750 5752 5755 5756 5758 5759 5762 5764 5769 5773 5777 5780 5784 5787 5789 5792 5795 5798 5801 5803 5806 5808 5810 5812 5814 5817 5818 5820 5821 5823 5825
5712 5714 5717 5719 5722 5725 5728 5730 5732 5733 5735 5737 5739 5741 5742 5744 5747 5749 5750 5752 5756 5758 5761 5765 5769 5771 5773 5776 5779 5782 5784 5787 5789 5792 5794 5796 5798 5799 5800 5802 5805 5806 5807 5809
5707 5708 5710 5712 5714 5717 5719 5721 5722 5724 5725 5727 5730 5732 5735 5735 5736 5738 5739 5742 5744 5746 5747 5751 5753 5756 5759 5762 5765 5767 5769 5771 5774 5776 5779 5781 5783 5784 5786 5787 5787 5788 5790 5792
5704 5704 5705 5706 5707 5708 5710 5710 5712 5713 5715 5716 5716 5718 5720 5722 5724 5725 5727 5730 5731 5731 5734 5736 5738 5741 5743 5746 5749 5751 5753 5756 5759 5761 5763 5765 5766 5768 5769 5770 5770 5771 5771 5772
5701 5701 5701 5700 5700 5700 5700 5701 5701 5702 5703 5704 5705 5706 5707 5707 5709 5710 5710 5711 5713 5716 5718 5721 5724 5727 5729 5732 5735 5737 5739 5741 5743 5746 5747 5748 5749 5750 5751 5751 5752 5753 5754 5755
5697 5697 5696 5695 5694 5693 5692 5691 5691 5691 5691 5692 5692 5693 5694 5694 5695 5695 5695 5696 5698 5700 5702 5703 5706 5710 5713 5715 5717 5719 5722 5723 5725 5727 5729 5730 5732 5734 5735 5735 5735 5736 5736 5736
5689 5688 5687 5686 5685 5683 5682 5682 5681 5680 5680 5680 5680 5680 5680 5680 5680 5680 5681 5682 5683 5684 5688 5688 5689 5693 5696 5698 5700 5702 5705 5706 5708 5710 5711 5712 5713 5715 5716 5717 5718 5719 5719 5719
5684 5681 5678 5676 5673 5672 5670 5670 5669 5668 5667 5666 5665 5664 5663 5663 5663 5663 5665 5666 5668 5669 5671 5674 5674 5678 5681 5683 5685 5687 5689 5691 5693 5695 5696 5697 5697 5698 5698 5699 5699 5699 5698 5697
5676 5674 5671 5668 5665 5662 5660 5658 5656 5654 5651 5649 5648 5647 5647 5646 5646 5646 5648 5649 5651 5652 5656 5657 5661 5663 5666 5669 5670 5673 5676 5677 5679 5680 5681 5682 5682 5682 5682 5682 5680 5679 5678 5676
5668 5666 5663 5659 5656 5653 5650 5648 5645 5641 5639 5636 5634 5631 5629 5628 5628 5629 5630 5632 5632 5635 5640 5643 5647 5650 5652 5653 5656 5658 5661 5664 5666 5667 5668 5669 5669 5669 5667 5666 5664 5661 5659 5656
5659 5656 5653 5649 5646 5643 5639 5635 5632 5629 5625 5622 5618 5614 5612 5610 5610 5611 5613 5612 5614 5618 5621 5626 5631 5635 5635 5639 5643 5644 5647 5650 5652 5654 5656 5657 5656 5655 5653 5651 5647 5643 5639 5635
5652 5649 5645 5641 5637 5633 5628 5624 5620 5615 5609 5605 5602 5600 5600 5599 5598 5598 5599 5600 5601 5603 5606 5610 5615 5621 5625 5627 5630 5633 5636 5639 5640 5642 5644 5644 5641 5639 5636 5633 5627 5622 5618 5613
5646 5641 5637 5633 5628 5623 5619 5614 5607 5600 5595 5594 5594 5594 5592 5589 5585 5585 5586 5589 5591 5594 5596 5598 5605 5610 5615 5618 5619 5621 5626 5628 5629 5631 5631 5629 5626 5624 5619 5614 5609 5605 5601 5596
5638 5634 5629 5625 5620 5615 5611 5604 5597 5592 5592 5592 5592 5590 5587 5583 5581 5581 5582 5584 5585 5587 5590 5593 5596 5600 5606 5610 5612 5614 5616 5618 5619 5619 5617 5616 5613 5608 5604 5600 5595 5592 5587 5583
5631 5626 5623 5619 5615 5610 5605 5598 5592 5590 5591 5591 5590 5589 5587 5585 5582 5582 5582 5583 5583 5583 5585 5587 5591 5595 5600 5602 5605 5606 5607 5608 5607 5606 5606 5602 5598 5595 5591 5587 5584 5580 5576 5571